Regional Weather Roundup
Issued by NWS Charleston, SC

Current Version | Previous Version | Text Only | Print | Product List | Glossary Off
Versions: 1 2 3 4 5 6 7 8 9 10 11 12 13 14 15 16 17 18 19 20 21 22 23 24 25 26 27 28 29 30 31 32 33 34 35 36 37 38 39 40 41 42 43 44 45 46 47 48 49 50

000
ASUS42 KCHS 251825
RWRCHS

REGIONAL WEATHER ROUNDUP
NATIONAL WEATHER SERVICE CHARLESTON SC
100 PM EST TUE NOV 25 2014

NOTE: "FAIR" INDICATES FEW OR NO CLOUDS BELOW 12,000 FEET WITH NO
SIGNIFICANT WEATHER AND/OR OBSTRUCTIONS TO VISIBILITY.

NOT ALL STATIONS ARE QUALITY CONTROLLED BY THE NATIONAL
WEATHER SERVICE. USE DATA WITH CAUTION...ESPECIALLY
DEWPOINT OBSERVATIONS.

SCZ027-030-031-034>040-042>050-251900-
...SOUTHEAST SOUTH CAROLINA...

CITY           SKY/WX    TMP DP  RH WIND       PRES   REMARKS
N CHARLESTON   LGT RAIN  64  61  90 CALM      30.01F
6HR MIN TEMP:  61; 6HR MAX TEMP:  64; 6HR PCP:  0.79;

WATERFRONT PRK   N/A     63 N/A N/A N3          N/A
MOUNT PLEASANT MOCLDY    64  64 100 CALM      30.00F
JOHNS ISLAND   CLOUDY    64  64 100 N5        30.00F
PINOPOLIS        N/A     64  63  94 MISG      29.95F
MONCKS CORNER  MOCLDY    64  64 100 CALM      30.01F
SUMMERVILLE    LGT RAIN  64  64 100 CALM      30.00F
BEAUFORT MCAS  CLOUDY    63  61  93 E3        30.01F FOG
6HR MIN TEMP:  61; 6HR MAX TEMP:  64; 6HR PCP:  0.53;

BEAUFORT ARPT  CLOUDY    63  63 100 CALM      30.01S
HILTON HEAD IS PTSUNNY   63  63 100 CALM      30.02F
WALTERBORO     CLOUDY    63 N/A N/A CALM      30.00F
ALLENDALE      FAIR      59  57  94 CALM      30.02F

...SOUTHERN MIDLANDS AND PEE DEE...

CITY           SKY/WX    TMP DP  RH WIND       PRES   REMARKS
GEORGETOWN     NOT AVBL
KINGSTREE      NOT AVBL
ORANGEBURG     CLOUDY    64  56  75 CALM      30.01S
6HR MIN TEMP:  62; 6HR MAX TEMP:  64;

BARNWELL       DRIZZLE   61  57  88 NW3       30.03F
AIKEN          CLOUDY    59  48  67 SW5       30.06F
MANNING        NOT AVBL
COLUMBIA       CLOUDY    62  53  72 W9        30.00F
6HR MIN TEMP:  61; 6HR MAX TEMP:  63; 6HR PCP: TRACE;

SUMTER         LGT RAIN  63  61  94 S3        29.98F FOG
6HR MIN TEMP:  61; 6HR MAX TEMP:  63; 6HR PCP:  0.13;

FLORENCE       LGT RAIN  64  61  90 SW5       30.00F
6HR MIN TEMP:  61; 6HR MAX TEMP:  63; 6HR PCP:  0.20;

MYRTLE BEACH   LGT RAIN  64  61  88 NW7       30.02F
N MYRTLE BEACH CLOUDY    65  62  90 VRB3      30.01F
6HR MIN TEMP:  62; 6HR MAX TEMP:  65; 6HR PCP:  0.26;


$$

GAZ063-065-086>088-099>101-113>116-118-119-134>141-150-251900-
...SOUTHEAST GEORGIA...

CITY           SKY/WX    TMP DP  RH WIND       PRES   REMARKS
SAVANNAH ARPT  CLOUDY    66  61  84 N3        30.01F
6HR MIN TEMP:  63; 6HR MAX TEMP:  67; 6HR PCP:  0.72;

HUNTER AAF     CLOUDY    64  64 100 N3        29.99F
FORT STEWART   CLOUDY    61  59  94 NW6       30.00F
6HR MIN TEMP:  61; 6HR MAX TEMP:  64; 6HR PCP:  0.76;

STATESBORO     NOT AVBL
SYLVANIA       CLOUDY    58  54  89 NW6       30.04F
CLAXTON        CLOUDY    59  57  94 CALM      30.02F

...CSRA...CENTRAL AND FAR SOUTHEAST GEORGIA...

CITY           SKY/WX    TMP DP  RH WIND       PRES   REMARKS
THOMSON        CLOUDY    57  48  72 CALM      30.08F
AUGUSTA-BUSH   CLOUDY    58  47  66 NW7       30.04F
6HR MIN TEMP:  57; 6HR MAX TEMP:  59; 6HR PCP: TRACE;

AUGUSTA-DANIEL   N/A     58  45  62 CALM      30.04F
SWAINSBORO     LGT RAIN  57  57 100 CALM      30.07R
VIDALIA        RAIN      55  54  94 N5        30.03F
HAZLEHURST     CLOUDY    57  55  94 N6        30.02F
ALMA           CLOUDY    58  55  90 N6        30.01F
6HR MIN TEMP:  57; 6HR MAX TEMP:  61; 6HR PCP:  0.42;

WAYCROSS       LGT RAIN  62  62  99 N8        30.01F
JESUP          DRIZZLE   64  63  94 CALM      30.01F
BAXLEY         CLOUDY    59  54  82 N8        30.01F
BRUNSWICK      CLOUDY    66  61  82 N3        30.00F
SAINT SIMONS   PTSUNNY   64  60  87 NE9       29.99F
6HR MIN TEMP:  62; 6HR MAX TEMP:  66; 6HR PCP: TRACE;


$$

SCZ027-028-034-036>038-045-046-048>050-GAZ119-141-251900-
...LAKE AND SUPPLEMENTAL COASTAL OBSERVATIONS...

STATION/POSITION TIME  TEMP    WIND        PRES    WAVE   SWELL
                       AIR SEA DIR/SP/G            HT/PER HT/PER/DIR
                 (UTC) (F)     (DEG/KT/KT) (MB)    (FT/S) (FT/S/D)
UPR LAKE MARION  NOT AVBL
WINYAH BAY       1800   63     300/  6     1017.0S
LAKE MURRAY      1700   59     290/  3/  5 1016.6F
ACE BASIN NERRS  1800   62        CALM     1016.0F
FORT PULASKI     1800   60      50/  4/  4 1016.5S
SAPELO ISLAND    NOT AVBL

$$

ANZ835-935-AMZ111-154-330-350-352-354-370-450-454-472-251900-
...C-MAN AND BUOY OBSERVATIONS...

STATION/POSITION TIME  TEMP    WIND        PRES    WAVE   SWELL
                       AIR SEA DIR/SP/G            HT/PER HT/PER/DIR
                 (UTC) (F)     (DEG/KT/KT) (MB)    (FT/S) (FT/S/D)
FOLLY BEACH CMAN 1800   63     360/  3/  4 1016.6F
BUOY 41004       1800   69 75  290/  8/ 10 1016.1F   5/10   5/10
BUOY 41008       1800   64 64   60/ 10/ 12 1015.9F   3/10   3/100/10
CAPERS NEARSHORE 1700   59     320/  8/ 10   N/A
FRIPP NEARSHORE  NOT AVBL


STATION/POSITION TIME  TEMP    WIND        PRES    WAVE   SWELL
                       AIR SEA DIR/SP/G            HT/PER HT/PER/DIR
                 (UTC) (F)     (DEG/KT/KT) (MB)    (FT/S) (FT/S/D)
5E ST. MARYS GA  1800      63                N/A     3/11   2/110/11
FRYING PAN BUOY  1800   67 70  290/ 12/ 14 1017.2F   4/ 9   3/130/ 9
BUOY 41025       1800   68     340/  6/ 10 1016.4F   5/ 9   5/120/ 9
CAPE LOOKOUT NC  1800   64     280/  6/  7 1016.5R
BUOY 41002       1727   75 74  190/ 17/ 21 1018.3F   6/ 8   3/120/ 8
BUOY 41010       1800   79 78  180/ 17/ 21 1015.4F   7/ 9   3/120/ 9
ST AUGUSTINE FL  1800   65     360/ 15/ 16 1015.2F


$$


USA.gov is the U.S. government's official web portal to all federal, state and local government web resources and services.